Preview of NWS' New Version of Forecast
This preview is not operational and should not be used for support decisions.

Terminal Aerodrome Forecast (TAF)

Issued by National Weather Service (NWS)

                            
000
FTUS42 KMFL 162054 AAA
TAFMIA
TAF AMD
KMIA 162054Z 1621/1724 27007KT P6SM SCT040 SCT250
     FM170100 29003KT P6SM FEW250
     FM171500 31007KT P6SM SKC=